[[{"header":{"parameterUnit":"m.s-1","parameterCategory":1,"la1":30.2991,"la2":30.254,"lo1":-89.0895,"lo2":-89.0444,"dy":0.0017,"dx":0.0017,"nx":28,"ny":28,"refTime":"2024-05-26T03:00:00:Z","depth":0,"parameterNumber":2,"parameterNumberName":"U-component_of_WINDS"},"data":[0,0,0,0,0,0,0,0,0,0,0,0,0,0,0,0,0,0,0,0,0,0,0,0,0,0,0,0,0,0,0,0,0,0,0,0,0,0,0,0,0,0,0,0,0,0,0,0,0,0,0,0,0,0,0,0,0,0,-0.2287,-0.2288,0,-0.2328,-0.2329,-0.2329,-0.2355,-0.2355,-0.2355,-0.2355,-0.2397,-0.2398,-0.2399,0,0,0,0,0,0,0,0,0,0,0,0,0,-0.2232,-0.2233,-0.2287,-0.2288,-0.2288,-0.2328,-0.2329,-0.2329,-0.2355,-0.2355,-0.2355,-0.2355,-0.2396,-0.2398,-0.2399,0,0,0,0,0,0,0,0,0,0,0,0,0,-0.2263,-0.2233,-0.2287,-0.2306,-0.2308,-0.2328,-0.2329,-0.2329,-0.2355,-0.2355,-0.2355,-0.2355,-0.2396,-0.2398,-0.2399,-0.2404,0,0,-0.2403,-0.2404,0,0,0,0,0,0,0,0,-0.2261,-0.2265,-0.2303,-0.2305,-0.2307,-0.2337,-0.2325,-0.2354,-0.2355,-0.2337,-0.2355,-0.2355,-0.2377,-0.238,-0.2387,-0.2406,-0.2407,-0.2404,-0.2404,-0.2405,-0.2405,0,0,0,0,0,0,0,-0.2259,-0.2263,-0.2304,-0.2303,-0.2306,-0.2312,-0.2317,-0.233,-0.2355,-0.2338,-0.234,-0.2345,-0.2378,-0.2385,-0.2388,-0.2408,-0.2404,-0.2405,-0.2406,-0.2406,-0.2434,-0.2434,0,0,0,0,0,0,-0.2254,-0.2261,-0.2302,-0.2305,-0.2284,-0.2313,-0.2318,-0.2327,-0.2355,-0.2359,-0.2345,-0.2346,-0.2383,-0.2386,-0.239,-0.2398,-0.2405,-0.2406,-0.2407,-0.2434,-0.2434,-0.2434,0,0,0,0,0,0,-0.2253,-0.2257,-0.2301,-0.2284,-0.229,-0.2314,-0.2323,-0.2328,-0.2335,-0.236,-0.2364,-0.2348,-0.2383,-0.2388,-0.24,-0.24,-0.2407,-0.2408,-0.2434,-0.2434,-0.2434,-0.2414,0,0,0,0,0,0,-0.2251,-0.2257,-0.2258,-0.2283,-0.229,-0.231,-0.2323,-0.2328,-0.2338,-0.234,-0.2364,-0.2368,-0.2384,-0.2398,-0.2402,-0.2402,-0.241,-0.2435,-0.2434,-0.2434,-0.2415,-0.2413,-0.2411,0,0,0,0,0,-0.2249,-0.2251,-0.2258,-0.2263,-0.2293,-0.231,-0.2314,-0.2332,-0.2337,-0.234,-0.2356,-0.2367,-0.2399,-0.2399,-0.2404,-0.2404,-0.2435,-0.2434,-0.2434,-0.2415,-0.2413,-0.2411,0,0,0,0,0,0,-0.2225,-0.2254,-0.2263,-0.2273,-0.2289,-0.2314,-0.2318,-0.2329,-0.2344,-0.2345,-0.2367,-0.2372,-0.2383,-0.2395,-0.2394,-0.2411,-0.2418,-0.2419,-0.2402,-0.2401,-0.2399,-0.2396,-0.2411,0,0,0,0,0,-0.2221,-0.2232,-0.2257,-0.2264,-0.2271,-0.2293,-0.2301,-0.2314,-0.2331,-0.2338,-0.2355,-0.2371,-0.2385,-0.2393,-0.2407,-0.2416,-0.2423,-0.2419,-0.2417,-0.2416,-0.2416,-0.2423,-0.2422,-0.2433,-0.2433,-0.2433,0,0,-0.2212,-0.223,-0.2236,-0.2259,-0.2273,-0.2285,-0.2299,-0.231,-0.2319,-0.2339,-0.2353,-0.2366,-0.2386,-0.2397,-0.2403,-0.2407,-0.2415,-0.2416,-0.2414,-0.2415,-0.2423,-0.2422,-0.2421,-0.2433,-0.2433,-0.2433,0,0,-0.2203,-0.2217,-0.2225,-0.2238,-0.2259,-0.2274,-0.2276,-0.23,-0.2309,-0.2323,-0.2339,-0.235,-0.2373,-0.2387,-0.2397,-0.2394,-0.2405,-0.2398,-0.2389,-0.2396,-0.2395,-0.2394,-0.2394,-0.2393,-0.2398,-0.2398,-0.2398,0,-0.219,-0.2208,-0.2227,-0.2238,-0.2248,-0.2268,-0.2276,-0.2288,-0.2312,-0.2319,-0.2324,-0.2354,-0.2369,-0.2384,-0.2383,-0.239,-0.2394,-0.2395,-0.2393,-0.2393,-0.2393,-0.2393,-0.2392,-0.2397,-0.2397,-0.2397,-0.2397,0,-0.2192,-0.2204,-0.2207,-0.2231,-0.2241,-0.2251,-0.2272,-0.228,-0.2292,-0.2306,-0.2321,-0.2339,-0.2357,-0.2362,-0.2373,-0.2379,-0.2381,-0.2389,-0.2397,-0.239,-0.2391,-0.2391,-0.2395,-0.2396,-0.2396,-0.2396,0,0,-0.2168,-0.2202,-0.2203,-0.2215,-0.2239,-0.2249,-0.226,-0.2278,-0.2286,-0.2302,-0.2312,-0.2331,-0.2339,-0.235,-0.2364,-0.2369,-0.2367,-0.2377,-0.2378,-0.2375,-0.2375,-0.2369,-0.2369,-0.2374,-0.2374,-0.2374,-0.2374,0,-0.2163,-0.2183,-0.2201,-0.2214,-0.2226,-0.2245,-0.2255,-0.2271,-0.2285,-0.2297,-0.2313,-0.2327,-0.2336,-0.2343,-0.2349,-0.2365,-0.2367,-0.2366,-0.2384,-0.2385,-0.2379,-0.2369,-0.2362,-0.2361,-0.2374,-0.2374,-0.2374,0,-0.216,-0.2176,-0.219,-0.2215,-0.222,-0.2228,-0.2247,-0.2259,-0.2278,-0.2288,-0.2301,-0.2315,-0.2327,-0.2334,-0.2352,-0.2351,-0.236,-0.2369,-0.2369,-0.2372,-0.2379,-0.2372,-0.2361,-0.236,-0.2374,-0.2374,-0.2374,0,-0.2142,-0.2167,-0.2179,-0.2188,-0.2217,-0.2222,-0.2234,-0.2254,-0.2264,-0.228,-0.2287,-0.2305,-0.2315,-0.2328,-0.2347,-0.235,-0.2363,-0.2371,-0.2372,-0.2372,-0.2374,-0.2374,-0.2365,-0.2379,-0.2379,-0.2379,-0.2379,0,-0.2135,-0.2143,-0.2172,-0.2179,-0.219,-0.221,-0.222,-0.2234,-0.2251,-0.2262,-0.228,-0.229,-0.2314,-0.2327,-0.2341,-0.2355,-0.2359,-0.2367,-0.2371,-0.2366,-0.2365,-0.2372,-0.2373,-0.2379,-0.2379,-0.2379,-0.2379,0,-0.2117,-0.2136,-0.2151,-0.2177,-0.2184,-0.219,-0.2213,-0.2221,-0.2236,-0.225,-0.2255,-0.2278,-0.2295,-0.2315,-0.2337,-0.2347,-0.2359,-0.2364,-0.2352,-0.2355,-0.2355,-0.2355,-0.235,-0.2351,-0.2364,-0.2364,-0.2364,0,-0.2111,-0.2118,-0.2145,-0.2154,-0.2166,-0.2179,-0.219,-0.2211,-0.2221,-0.2244,-0.225,-0.2268,-0.2283,-0.2308,-0.2328,-0.2345,-0.2352,-0.2349,-0.2354,-0.2349,-0.2353,-0.2352,-0.2353,-0.2348,-0.2347,-0.2347,-0.2347,0,-0.2099,-0.2109,-0.2123,-0.2142,-0.2154,-0.2169,-0.2185,-0.2191,-0.2216,-0.2227,-0.2244,-0.2256,-0.2279,-0.2297,-0.2317,-0.233,-0.2343,-0.2345,-0.2346,-0.2341,-0.2334,-0.2339,-0.2349,-0.2345,-0.2345,-0.2345,-0.2346,-0.2346,-0.2088,-0.2095,-0.2116,-0.2132,-0.2146,-0.2161,-0.217,-0.2187,-0.2201,-0.2222,-0.2234,-0.2251,-0.2271,-0.2299,-0.2312,-0.2326,-0.233,-0.2332,-0.2332,-0.2332,-0.2331,-0.2332,-0.2329,-0.2329,-0.2329,-0.233,-0.233,0,-0.2078,-0.2092,-0.2106,-0.2128,-0.2141,-0.2152,-0.2171,-0.2181,-0.2195,-0.2213,-0.2228,-0.2248,-0.2265,-0.2286,-0.2305,-0.2312,-0.2319,-0.2317,-0.2317,-0.2319,-0.2326,-0.2323,-0.2311,-0.2311,-0.2311,-0.2311,-0.2311,-0.2311,-0.2074,-0.2087,-0.2099,-0.212,-0.2135,-0.2151,-0.2161,-0.2175,-0.2189,-0.2211,-0.2226,-0.2239,-0.2259,-0.2279,-0.2296,-0.2302,-0.2308,-0.2304,-0.2312,-0.2317,-0.2319,-0.232,-0.2318,-0.2305,-0.2305,-0.2304,-0.2304,-0.2304]},{"header":{"parameterUnit":"m.s-1","parameterCategory":1,"la1":30.2991,"la2":30.254,"lo1":-89.0895,"lo2":-89.0444,"dy":0.0017,"dx":0.0017,"nx":28,"ny":28,"refTime":"2024-05-26T03:00:00:Z","depth":0,"parameterNumber":3,"parameterNumberName":"V-component_of_WINDS"},"data":[0,0,0,0,0,0,0,0,0,0,0,0,0,0,0,0,0,0,0,0,0,0,0,0,0,0,0,0,0,0,0,0,0,0,0,0,0,0,0,0,0,0,0,0,0,0,0,0,0,0,0,0,0,0,0,0,0,0,4.428,4.428,0,4.4327,4.4327,4.4328,4.4278,4.4276,4.4275,4.4273,4.4318,4.4321,4.4324,0,0,0,0,0,0,0,0,0,0,0,0,0,4.4145,4.4148,4.428,4.428,4.4281,4.4326,4.4327,4.4328,4.4279,4.4276,4.4274,4.4272,4.4317,4.4321,4.4324,0,0,0,0,0,0,0,0,0,0,0,0,0,4.4199,4.4149,4.428,4.4262,4.4261,4.4326,4.4327,4.4328,4.4279,4.4276,4.4273,4.4271,4.4316,4.432,4.4325,4.4409,0,0,4.4338,4.434,0,0,0,0,0,0,0,0,4.4196,4.4204,4.4264,4.4263,4.4262,4.4294,4.4296,4.4355,4.428,4.4272,4.4273,4.4269,4.4312,4.4317,4.4332,4.4411,4.4413,4.4339,4.4341,4.4343,4.4344,0,0,0,0,0,0,0,4.4192,4.4202,4.4298,4.4265,4.4264,4.4251,4.4255,4.4307,4.4307,4.4273,4.4269,4.4276,4.4311,4.4327,4.4332,4.4414,4.4339,4.4342,4.4345,4.4347,4.4564,4.4567,0,0,0,0,0,0,4.4191,4.4199,4.4297,4.43,4.4222,4.4256,4.4261,4.4286,4.4307,4.4307,4.4278,4.4273,4.4321,4.4327,4.4334,4.4433,4.4343,4.4347,4.435,4.4561,4.4565,4.4568,0,0,0,0,0,0,4.4188,4.42,4.4295,4.4248,4.4259,4.4261,4.429,4.4289,4.4305,4.4311,4.431,4.4295,4.4319,4.4327,4.4391,4.4434,4.4349,4.4353,4.4557,4.4562,4.4566,4.4634,0,0,0,0,0,0,4.4185,4.42,4.4232,4.425,4.4262,4.4352,4.4293,4.4292,4.4313,4.4307,4.4326,4.4327,4.4318,4.4384,4.4395,4.4439,4.4357,4.4553,4.4559,4.4565,4.4628,4.464,4.4651,0,0,0,0,0,4.418,4.4249,4.4234,4.4246,4.4303,4.4355,4.4362,4.4351,4.4317,4.435,4.4353,4.4326,4.4428,4.4391,4.4403,4.4449,4.455,4.4558,4.4564,4.4623,4.4638,4.4651,0,0,0,0,0,0,4.4236,4.4251,4.4235,4.4312,4.4333,4.4346,4.4387,4.4367,4.4397,4.439,4.4374,4.4379,4.4446,4.4453,4.4412,4.4531,4.4484,4.4493,4.4524,4.4538,4.455,4.4546,4.4361,0,0,0,0,0,4.4258,4.4299,4.4309,4.4376,4.4388,4.4386,4.4408,4.4397,4.4418,4.4426,4.4434,4.4454,4.449,4.4515,4.4549,4.4629,4.4632,4.4666,4.4677,4.4687,4.4695,4.4738,4.4753,4.4591,4.4591,4.4591,0,0,4.4302,4.4315,4.4342,4.4388,4.4403,4.4445,4.4393,4.444,4.4471,4.4433,4.4493,4.45,4.4521,4.4593,4.4625,4.4602,4.4741,4.4696,4.4703,4.4707,4.4747,4.4762,4.4776,4.4596,4.4595,4.4594,0,0,4.4405,4.442,4.4477,4.4493,4.4516,4.4514,4.4528,4.4545,4.4548,4.4609,4.4581,4.4617,4.468,4.4696,4.4713,4.4821,4.4798,4.4833,4.4893,4.4935,4.4948,4.4959,4.4998,4.5012,4.4841,4.4841,4.4842,0,4.4457,4.4521,4.4508,4.4558,4.4578,4.4546,4.4603,4.4619,4.4652,4.4666,4.4639,4.4718,4.473,4.4805,4.4832,4.4846,4.4861,4.4831,4.4947,4.4958,4.4969,4.5005,4.502,4.4846,4.4845,4.4845,4.4844,0,4.4584,4.4628,4.4671,4.4705,4.473,4.4783,4.4778,4.4805,4.4792,4.4793,4.4854,4.4868,4.4903,4.492,4.4908,4.4994,4.4978,4.495,4.4902,4.4988,4.5022,4.5036,4.4851,4.485,4.4849,4.4848,0,0,4.4724,4.4749,4.4766,4.478,4.4803,4.4837,4.4888,4.4924,4.4947,4.4971,4.5013,4.5067,4.504,4.5059,4.5048,4.5085,4.517,4.5052,4.5052,4.5073,4.5265,4.5286,4.5303,4.5154,4.5157,4.5159,4.5263,0,4.4827,4.4917,4.4907,4.4992,4.5032,4.5002,4.5046,4.5065,4.5067,4.5101,4.5102,4.5141,4.5103,4.5114,4.5149,4.5152,4.5208,4.5145,4.5192,4.5194,4.5188,4.532,4.5343,4.5441,4.5276,4.5278,4.528,0,4.496,4.4989,4.5079,4.5095,4.5112,4.5152,4.5184,4.5217,4.5237,4.5236,4.5257,4.524,4.529,4.5241,4.5309,4.5266,4.5285,4.529,4.5293,4.5297,4.5243,4.5328,4.5472,4.5486,4.5301,4.5299,4.5298,0,4.5053,4.5114,4.5176,4.5189,4.521,4.5239,4.5249,4.5266,4.5289,4.5316,4.533,4.5362,4.538,4.5406,4.5397,4.5362,4.5467,4.5418,4.5467,4.5468,4.5491,4.549,4.564,4.5503,4.5503,4.5503,4.5502,0,4.5169,4.5225,4.5218,4.5256,4.5317,4.5304,4.5365,4.5371,4.5387,4.5425,4.54,4.5435,4.5422,4.5457,4.545,4.5508,4.5516,4.5516,4.5514,4.5518,4.5518,4.5531,4.5524,4.5507,4.5506,4.5505,4.5504,0,4.5284,4.5281,4.5346,4.5361,4.5366,4.541,4.5422,4.5458,4.5457,4.5505,4.5516,4.5516,4.5555,4.5549,4.5593,4.5588,4.566,4.565,4.5654,4.5651,4.5701,4.5697,4.5865,4.5886,4.5736,4.5737,4.5738,0,4.5358,4.5401,4.542,4.5444,4.5457,4.5495,4.5518,4.5506,4.5531,4.5556,4.5588,4.5626,4.5655,4.572,4.5723,4.5756,4.5746,4.5802,4.575,4.5754,4.5746,4.5744,4.5748,4.5812,4.5814,4.5815,4.5817,0,4.5491,4.5488,4.5522,4.5555,4.5583,4.5609,4.5632,4.5652,4.5643,4.5671,4.5712,4.5735,4.5779,4.5817,4.5848,4.5857,4.5835,4.5833,4.5846,4.5851,4.5852,4.5852,4.5682,4.5829,4.5828,4.5827,4.5826,4.5826,4.5588,4.5624,4.5644,4.5682,4.5698,4.572,4.5754,4.5758,4.5792,4.5828,4.5819,4.5865,4.5883,4.5922,4.5935,4.597,4.5949,4.5968,4.5973,4.5978,4.5984,4.5847,4.5975,4.5975,4.5975,4.5974,4.5974,0,4.572,4.573,4.5766,4.5799,4.5829,4.5807,4.5831,4.5857,4.5898,4.5917,4.5947,4.5993,4.6029,4.6035,4.6069,4.6096,4.6087,4.6105,4.6103,4.6105,4.6001,4.5986,4.6112,4.6112,4.6112,4.6112,4.6112,4.6112,4.5792,4.5852,4.585,4.5918,4.5928,4.5973,4.5989,4.6009,4.6024,4.6077,4.6107,4.6111,4.6124,4.6159,4.6191,4.6191,4.6205,4.6227,4.6224,4.6127,4.6113,4.61,4.6086,4.623,4.6231,4.6326,4.6327,4.6328]}]]